[[{"header":{"parameterUnit":"m.s-1","parameterCategory":1,"la1":30.2991,"la2":30.254,"lo1":-89.0895,"lo2":-89.0444,"dy":0.0017,"dx":0.0017,"nx":28,"ny":28,"refTime":"2025-01-28T03:00:00:Z","depth":0,"parameterNumber":2,"parameterNumberName":"U-component_of_WINDS"},"data":[0,0,0,0,0,0,0,0,0,0,0,0,0,0,0,0,0,0,0,0,0,0,0,0,0,0,0,0,0,0,0,0,0,0,0,0,0,0,0,0,0,0,0,0,0,0,0,0,0,0,0,0,0,0,0,0,0,0,0.8178,0.8179,0,0.8273,0.8274,0.8275,0.8292,0.8292,0.8291,0.829,0.839,0.8393,0.8396,0,0,0,0,0,0,0,0,0,0,0,0,0,0.8012,0.8015,0.8177,0.8179,0.818,0.8273,0.8274,0.8276,0.8292,0.8291,0.8291,0.829,0.8388,0.8392,0.8397,0,0,0,0,0,0,0,0,0,0,0,0,0,0.8093,0.8015,0.8177,0.8199,0.8202,0.8273,0.8274,0.8276,0.8293,0.8291,0.829,0.8289,0.8387,0.8392,0.8397,0.8452,0,0,0.8413,0.8415,0,0,0,0,0,0,0,0,0.8088,0.8099,0.8195,0.8198,0.8201,0.827,0.8252,0.8335,0.8293,0.8258,0.829,0.8289,0.8351,0.8359,0.8379,0.8457,0.8461,0.8413,0.8416,0.8418,0.842,0,0,0,0,0,0,0,0.8083,0.8095,0.8215,0.8196,0.82,0.8205,0.8216,0.8268,0.831,0.8261,0.8263,0.8274,0.8352,0.8374,0.8382,0.8463,0.8413,0.8417,0.8421,0.8423,0.8592,0.8593,0,0,0,0,0,0,0.8073,0.809,0.8212,0.8218,0.8141,0.8209,0.8221,0.8249,0.831,0.8318,0.8275,0.8274,0.8366,0.8376,0.8385,0.8455,0.8418,0.8423,0.8426,0.8591,0.8592,0.8594,0,0,0,0,0,0,0.8069,0.8084,0.8208,0.8155,0.8171,0.8213,0.8245,0.8251,0.8274,0.832,0.8327,0.8289,0.8366,0.8378,0.8436,0.8458,0.8425,0.843,0.8589,0.8591,0.8593,0.8593,0,0,0,0,0,0,0.8064,0.8082,0.8103,0.8155,0.8174,0.8256,0.8246,0.8254,0.8282,0.8282,0.8336,0.8343,0.8366,0.8428,0.8441,0.8465,0.8434,0.8587,0.859,0.8592,0.8591,0.8595,0.8598,0,0,0,0,0,0.8058,0.8099,0.8104,0.8119,0.8201,0.8258,0.8268,0.8293,0.8284,0.8306,0.8335,0.8342,0.8454,0.8434,0.8448,0.8474,0.8586,0.8589,0.8592,0.859,0.8594,0.8598,0,0,0,0,0,0,0.8049,0.8106,0.8112,0.8171,0.8209,0.826,0.8288,0.8297,0.8339,0.8337,0.8367,0.8379,0.8435,0.846,0.8437,0.8531,0.8519,0.8526,0.8512,0.8517,0.852,0.8513,0.8438,0,0,0,0,0,0.8054,0.8095,0.8143,0.819,0.8209,0.8246,0.8271,0.8287,0.8328,0.8344,0.8378,0.8418,0.8463,0.8491,0.8535,0.8595,0.8607,0.862,0.8624,0.8626,0.8631,0.8666,0.8672,0.8604,0.8604,0.8604,0,0,0.8064,0.8101,0.8125,0.8189,0.8221,0.8263,0.8259,0.8304,0.8336,0.8351,0.8408,0.8434,0.8481,0.854,0.8568,0.8563,0.8653,0.863,0.8632,0.8636,0.867,0.8676,0.8682,0.8607,0.8606,0.8606,0,0,0.8104,0.8136,0.8179,0.8211,0.8259,0.8283,0.8293,0.8343,0.8361,0.8418,0.8431,0.847,0.8545,0.8578,0.8605,0.8659,0.8667,0.8673,0.8691,0.8724,0.8729,0.8734,0.8754,0.876,0.8678,0.8678,0.8678,0,0.8111,0.8175,0.82,0.8245,0.8273,0.8289,0.8334,0.8363,0.8423,0.8443,0.8436,0.8532,0.8565,0.8632,0.8645,0.8667,0.868,0.8666,0.8726,0.8731,0.8736,0.8755,0.8763,0.8678,0.8678,0.8678,0.8678,0,0.8181,0.8225,0.8255,0.8311,0.8343,0.8388,0.842,0.845,0.8463,0.8488,0.8546,0.8586,0.8638,0.8656,0.8669,0.8725,0.8721,0.872,0.8709,0.8743,0.8761,0.8769,0.8679,0.8678,0.8678,0.8678,0,0,0.8217,0.8288,0.8298,0.8325,0.8379,0.8414,0.846,0.851,0.8535,0.8576,0.8615,0.868,0.8679,0.871,0.8727,0.8756,0.8797,0.8752,0.8754,0.8759,0.8862,0.8862,0.887,0.8803,0.8804,0.8806,0.8858,0,0.8264,0.8345,0.8369,0.8437,0.8479,0.8495,0.8535,0.8573,0.8598,0.8638,0.8666,0.8711,0.8707,0.8725,0.8755,0.8786,0.8818,0.8783,0.884,0.8842,0.8827,0.888,0.888,0.8928,0.8866,0.8867,0.8868,0,0.8329,0.8371,0.8443,0.8493,0.8511,0.8546,0.8595,0.8632,0.8676,0.8693,0.8727,0.8742,0.8791,0.8777,0.8846,0.8821,0.8846,0.8865,0.8867,0.8873,0.8856,0.8887,0.8944,0.8951,0.8879,0.8879,0.8878,0,0.8348,0.8422,0.8475,0.8497,0.8557,0.8581,0.8607,0.865,0.8679,0.8722,0.8742,0.879,0.8816,0.8854,0.8882,0.8869,0.8948,0.8936,0.8963,0.8963,0.8979,0.8977,0.904,0.8996,0.8995,0.8995,0.8995,0,0.8397,0.844,0.8485,0.8517,0.8567,0.8595,0.8644,0.8671,0.8709,0.8748,0.8765,0.8801,0.8837,0.8878,0.8901,0.8954,0.8966,0.8981,0.8986,0.8979,0.8977,0.8995,0.8993,0.8997,0.8997,0.8996,0.8996,0,0.8426,0.8457,0.8516,0.8568,0.8582,0.8616,0.8661,0.8694,0.872,0.8768,0.8782,0.8823,0.8872,0.8904,0.8967,0.8982,0.9041,0.9046,0.9026,0.9028,0.9053,0.905,0.913,0.9142,0.9089,0.909,0.909,0,0.8455,0.8489,0.8544,0.8571,0.8597,0.8641,0.8671,0.8701,0.8731,0.8784,0.8811,0.8861,0.8903,0.8981,0.9017,0.9066,0.9072,0.9096,0.9079,0.9071,0.9072,0.9069,0.9073,0.9099,0.9099,0.9099,0.91,0,0.8503,0.8517,0.8559,0.8607,0.8642,0.8682,0.8721,0.8742,0.8779,0.8813,0.8863,0.8896,0.896,0.901,0.9062,0.909,0.9101,0.9105,0.9114,0.9106,0.9093,0.9101,0.9033,0.9103,0.9103,0.9102,0.9102,0.9102,0.8533,0.8564,0.8608,0.8655,0.8688,0.8724,0.8758,0.8788,0.883,0.8885,0.8901,0.8953,0.8998,0.9069,0.9098,0.914,0.9137,0.915,0.9153,0.9156,0.9156,0.9087,0.915,0.915,0.915,0.9149,0.9149,0,0.8582,0.8611,0.8654,0.8708,0.8745,0.8753,0.8797,0.8828,0.8874,0.8914,0.8955,0.9013,0.9062,0.9103,0.9153,0.9179,0.9186,0.9192,0.919,0.9196,0.9155,0.9142,0.9186,0.9186,0.9186,0.9186,0.9186,0.9186,0.8611,0.8664,0.8684,0.8754,0.8784,0.8835,0.886,0.8894,0.8926,0.8991,0.9031,0.9057,0.9098,0.9152,0.9197,0.9208,0.9226,0.9231,0.9242,0.9203,0.9199,0.9195,0.9183,0.9234,0.9234,0.928,0.928,0.928]},{"header":{"parameterUnit":"m.s-1","parameterCategory":1,"la1":30.2991,"la2":30.254,"lo1":-89.0895,"lo2":-89.0444,"dy":0.0017,"dx":0.0017,"nx":28,"ny":28,"refTime":"2025-01-28T03:00:00:Z","depth":0,"parameterNumber":3,"parameterNumberName":"V-component_of_WINDS"},"data":[0,0,0,0,0,0,0,0,0,0,0,0,0,0,0,0,0,0,0,0,0,0,0,0,0,0,0,0,0,0,0,0,0,0,0,0,0,0,0,0,0,0,0,0,0,0,0,0,0,0,0,0,0,0,0,0,0,0,-0.4899,-0.49,0,-0.4914,-0.4914,-0.4914,-0.4897,-0.4897,-0.4896,-0.4895,-0.4912,-0.4913,-0.4914,0,0,0,0,0,0,0,0,0,0,0,0,0,-0.486,-0.4861,-0.4899,-0.49,-0.49,-0.4914,-0.4914,-0.4914,-0.4897,-0.4897,-0.4896,-0.4895,-0.4912,-0.4913,-0.4914,0,0,0,0,0,0,0,0,0,0,0,0,0,-0.4876,-0.4862,-0.4899,-0.4893,-0.4893,-0.4914,-0.4914,-0.4914,-0.4898,-0.4897,-0.4896,-0.4895,-0.4912,-0.4913,-0.4915,-0.4943,0,0,-0.4919,-0.492,0,0,0,0,0,0,0,0,-0.4876,-0.4878,-0.4894,-0.4894,-0.4893,-0.4903,-0.4906,-0.4924,-0.4898,-0.4896,-0.4895,-0.4894,-0.491,-0.4912,-0.4916,-0.4944,-0.4945,-0.4919,-0.492,-0.4921,-0.4922,0,0,0,0,0,0,0,-0.4874,-0.4877,-0.4905,-0.4894,-0.4894,-0.489,-0.4892,-0.491,-0.4908,-0.4896,-0.4895,-0.4896,-0.491,-0.4915,-0.4917,-0.4945,-0.4919,-0.4921,-0.4922,-0.4922,-0.4998,-0.4999,0,0,0,0,0,0,-0.4874,-0.4876,-0.4905,-0.4905,-0.4882,-0.4892,-0.4893,-0.4901,-0.4908,-0.4908,-0.4897,-0.4896,-0.4913,-0.4915,-0.4917,-0.4952,-0.4921,-0.4923,-0.4923,-0.4996,-0.4998,-0.4999,0,0,0,0,0,0,-0.4873,-0.4876,-0.4904,-0.4891,-0.4894,-0.4894,-0.4902,-0.4901,-0.4907,-0.4909,-0.4909,-0.4903,-0.4912,-0.4915,-0.4937,-0.4952,-0.4923,-0.4925,-0.4995,-0.4997,-0.4998,-0.502,0,0,0,0,0,0,-0.4872,-0.4876,-0.4886,-0.4891,-0.4895,-0.4923,-0.4903,-0.4902,-0.4909,-0.4907,-0.4914,-0.4914,-0.4912,-0.4935,-0.4938,-0.4954,-0.4926,-0.4994,-0.4996,-0.4998,-0.5018,-0.5023,-0.5026,0,0,0,0,0,-0.4871,-0.4892,-0.4887,-0.489,-0.4907,-0.4923,-0.4926,-0.4921,-0.491,-0.4921,-0.4923,-0.4914,-0.495,-0.4937,-0.4941,-0.4957,-0.4993,-0.4995,-0.4998,-0.5017,-0.5022,-0.5026,0,0,0,0,0,0,-0.489,-0.4893,-0.4887,-0.491,-0.4917,-0.4921,-0.4934,-0.4927,-0.4937,-0.4935,-0.493,-0.4932,-0.4955,-0.4958,-0.4944,-0.4986,-0.497,-0.4973,-0.4983,-0.4988,-0.4991,-0.499,-0.4927,0,0,0,0,0,-0.4897,-0.4909,-0.4911,-0.4932,-0.4935,-0.4934,-0.4941,-0.4937,-0.4944,-0.4947,-0.495,-0.4958,-0.4971,-0.4979,-0.4991,-0.5019,-0.5021,-0.5032,-0.5036,-0.5039,-0.5042,-0.5058,-0.5063,-0.5007,-0.5007,-0.5007,0,0,-0.4911,-0.4914,-0.4923,-0.4936,-0.494,-0.4954,-0.4936,-0.4952,-0.4962,-0.4949,-0.497,-0.4973,-0.4981,-0.5006,-0.5017,-0.5009,-0.5058,-0.5042,-0.5045,-0.5046,-0.5061,-0.5066,-0.5071,-0.5008,-0.5008,-0.5008,0,0,-0.4945,-0.4948,-0.4966,-0.4971,-0.4978,-0.4977,-0.4982,-0.4987,-0.4988,-0.5008,-0.4999,-0.5012,-0.5034,-0.5041,-0.5047,-0.5084,-0.5077,-0.5088,-0.5109,-0.5125,-0.5129,-0.5133,-0.5147,-0.5152,-0.5091,-0.5092,-0.5092,0,-0.4963,-0.4982,-0.4976,-0.4992,-0.4999,-0.4988,-0.5006,-0.5012,-0.5023,-0.5028,-0.5019,-0.5047,-0.5052,-0.5078,-0.5088,-0.5093,-0.5098,-0.5088,-0.5129,-0.5133,-0.5136,-0.515,-0.5155,-0.5093,-0.5093,-0.5093,-0.5092,0,-0.5004,-0.5017,-0.5031,-0.5041,-0.505,-0.5067,-0.5065,-0.5074,-0.507,-0.507,-0.5092,-0.5098,-0.5111,-0.5117,-0.5113,-0.5144,-0.5139,-0.5129,-0.5113,-0.5143,-0.5156,-0.5161,-0.5095,-0.5094,-0.5094,-0.5094,0,0,-0.5049,-0.5057,-0.5062,-0.5067,-0.5074,-0.5085,-0.5102,-0.5115,-0.5123,-0.5131,-0.5146,-0.5166,-0.5157,-0.5165,-0.5162,-0.5175,-0.5205,-0.5164,-0.5164,-0.5172,-0.5241,-0.5248,-0.5254,-0.5201,-0.5202,-0.5202,-0.524,0,-0.5084,-0.5113,-0.5109,-0.5137,-0.515,-0.514,-0.5156,-0.5162,-0.5164,-0.5176,-0.5177,-0.5192,-0.5179,-0.5183,-0.5196,-0.5199,-0.5219,-0.5196,-0.5216,-0.5217,-0.5214,-0.526,-0.5268,-0.5304,-0.5245,-0.5246,-0.5247,0,-0.5127,-0.5136,-0.5166,-0.5172,-0.5177,-0.5191,-0.5203,-0.5214,-0.5222,-0.5222,-0.523,-0.5225,-0.5244,-0.5227,-0.5254,-0.5238,-0.5246,-0.5249,-0.525,-0.5252,-0.5234,-0.5264,-0.5315,-0.532,-0.5254,-0.5253,-0.5253,0,-0.5159,-0.5178,-0.5199,-0.5203,-0.5211,-0.5221,-0.5224,-0.5231,-0.5239,-0.525,-0.5255,-0.5268,-0.5275,-0.5286,-0.5285,-0.5273,-0.5312,-0.5295,-0.5314,-0.5314,-0.5323,-0.5322,-0.5375,-0.5327,-0.5327,-0.5327,-0.5327,0,-0.5197,-0.5216,-0.5213,-0.5226,-0.5247,-0.5243,-0.5264,-0.5267,-0.5273,-0.5287,-0.5279,-0.5293,-0.529,-0.5304,-0.5303,-0.5326,-0.5329,-0.5331,-0.533,-0.5332,-0.5332,-0.5337,-0.5335,-0.5328,-0.5328,-0.5327,-0.5327,0,-0.5236,-0.5234,-0.5256,-0.5261,-0.5263,-0.5279,-0.5284,-0.5296,-0.5297,-0.5315,-0.5319,-0.532,-0.5336,-0.5336,-0.5354,-0.5354,-0.5382,-0.5379,-0.5379,-0.5379,-0.5398,-0.5396,-0.5457,-0.5465,-0.541,-0.5411,-0.5411,0,-0.5261,-0.5275,-0.5282,-0.529,-0.5294,-0.5308,-0.5316,-0.5313,-0.5322,-0.5332,-0.5344,-0.5359,-0.5371,-0.5397,-0.5401,-0.5415,-0.5413,-0.5433,-0.5415,-0.5416,-0.5414,-0.5413,-0.5415,-0.5436,-0.5437,-0.5438,-0.5438,0,-0.5306,-0.5304,-0.5316,-0.5328,-0.5338,-0.5347,-0.5355,-0.5363,-0.5361,-0.5372,-0.5388,-0.5397,-0.5416,-0.5431,-0.5445,-0.545,-0.5445,-0.5444,-0.5449,-0.5451,-0.5451,-0.5452,-0.539,-0.5442,-0.5442,-0.5442,-0.5441,-0.5441,-0.5339,-0.5351,-0.5358,-0.5371,-0.5377,-0.5386,-0.5398,-0.54,-0.5413,-0.5428,-0.5425,-0.5444,-0.5452,-0.5471,-0.5477,-0.5492,-0.5485,-0.5492,-0.5494,-0.5496,-0.5499,-0.5448,-0.5494,-0.5494,-0.5494,-0.5494,-0.5494,0,-0.5384,-0.5387,-0.54,-0.5412,-0.5423,-0.5416,-0.5425,-0.5435,-0.5451,-0.5459,-0.5471,-0.549,-0.5506,-0.551,-0.5526,-0.5537,-0.5535,-0.5541,-0.5541,-0.5542,-0.5503,-0.5498,-0.5543,-0.5543,-0.5543,-0.5543,-0.5543,-0.5543,-0.5408,-0.5429,-0.5429,-0.5453,-0.5458,-0.5475,-0.5481,-0.5489,-0.5496,-0.5517,-0.5529,-0.5532,-0.554,-0.5556,-0.557,-0.5571,-0.5577,-0.5585,-0.5585,-0.5549,-0.5545,-0.554,-0.5535,-0.5586,-0.5586,-0.5623,-0.5623,-0.5623]}]]